• In Hungary
  • List of Countries
  • For 7 days
  • Water Temperature
  • Satellite Maps
  • Weather Map
  • News
  • Weather Widgets
  • user-avatar
    Login

    Hourly Weather Snapugino

    Today, 21 May, Monday

    Time Temperature Precipitation Wind Pressure Humidity
    00:00 +8°C° 0 mm 1 mps 753 mmHg 72%
    01:00 +8°C° 0 mm 1 mps 753 mmHg 73%
    02:00 +7°C° 0 mm 1 mps 753 mmHg 80%
    03:00 +7°C° 0 mm 1 mps 754 mmHg 78%
    04:00 +8°C° 0 mm 1 mps 754 mmHg 75%
    05:00 +9°C° 0 mm 1 mps 754 mmHg 73%
    06:00 +12°C° 0 mm 1 mps 755 mmHg 65%
    07:00 +15°C° 0 mm 1 mps 755 mmHg 57%
    08:00 +17°C° 0 mm 0 mps 755 mmHg 48%
    09:00 +20°C° 0 mm 1 mps 755 mmHg 44%
    10:00 +22°C° 0 mm 1 mps 755 mmHg 40%
    11:00 +23°C° 0 mm 1 mps 755 mmHg 35%
    12:00 +23°C° 0 mm 1 mps 755 mmHg 35%
    13:00 +24°C° 0 mm 1 mps 755 mmHg 34%
    14:00 +24°C° 0 mm 1 mps 755 mmHg 33%
    15:00 +23°C° 0 mm 1 mps 755 mmHg 35%
    16:00 +23°C° 0 mm 1 mps 754 mmHg 38%
    17:00 +22°C° 0 mm 1 mps 754 mmHg 40%
    18:00 +20°C° 0 mm 1 mps 754 mmHg 48%
    19:00 +18°C° 0 mm 1 mps 754 mmHg 56%
    20:00 +15°C° 0 mm 1 mps 754 mmHg 64%
    21:00 +14°C° 0 mm 1 mps 755 mmHg 68%
    22:00 +13°C° 0 mm 1 mps 755 mmHg 71%
    23:00 +12°C° 0 mm 1 mps 755 mmHg 74%

    Tomorrow, 22 May, Tuesday

    Time Temperature Precipitation Wind Pressure Humidity
    00:00 +11°C° 0 mm 1 mps 755 mmHg 76%
    01:00 +11°C° 0 mm 1 mps 755 mmHg 78%
    02:00 +9°C° 0 mm 0 mps 755 mmHg 80%
    03:00 +11°C° 0 mm 1 mps 755 mmHg 78%
    04:00 +12°C° 0 mm 1 mps 755 mmHg 77%
    05:00 +12°C° 0 mm 1 mps 755 mmHg 75%
    06:00 +14°C° 0 mm 1 mps 755 mmHg 67%
    07:00 +16°C° 0 mm 2 mps 755 mmHg 59%
    08:00 +18°C° 0 mm 2 mps 755 mmHg 51%
    09:00 +19°C° 0 mm 3 mps 755 mmHg 47%
    10:00 +20°C° 0 mm 3 mps 754 mmHg 43%
    11:00 +21°C° 0 mm 4 mps 754 mmHg 38%
    12:00 +21°C° 0 mm 4 mps 753 mmHg 39%
    13:00 +21°C° 0 mm 4 mps 753 mmHg 40%
    14:00 +21°C° 0 mm 4 mps 752 mmHg 41%
    15:00 +20°C° 0 mm 3 mps 752 mmHg 46%
    16:00 +20°C° 0 mm 3 mps 751 mmHg 52%
    17:00 +19°C° 0 mm 2 mps 751 mmHg 58%
    18:00 +18°C° 0.1 mm 2 mps 751 mmHg 65%
    19:00 +16°C° 0.1 mm 2 mps 751 mmHg 73%
    20:00 +15°C° 0.1 mm 2 mps 750 mmHg 80%
    21:00 +15°C° 0.1 mm 2 mps 750 mmHg 85%
    22:00 +14°C° 0.1 mm 2 mps 750 mmHg 90%
    23:00 +14°C° 0.1 mm 2 mps 750 mmHg 94%

    Day after tomorrow, 23 May, Wednesday

    Time Temperature Precipitation Wind Pressure Humidity
    00:00 +13°C° 0 mm 2 mps 750 mmHg 96%
    01:00 +13°C° 0 mm 2 mps 749 mmHg 97%
    02:00 +13°C° 0 mm 2 mps 749 mmHg 98%
    03:00 +13°C° 0 mm 2 mps 749 mmHg 97%
    04:00 +13°C° 0 mm 2 mps 749 mmHg 96%
    05:00 +13°C° 0 mm 2 mps 749 mmHg 95%
    06:00 +14°C° 0 mm 2 mps 749 mmHg 89%
    07:00 +15°C° 0 mm 2 mps 749 mmHg 83%
    08:00 +17°C° 0 mm 2 mps 749 mmHg 77%
    09:00 +18°C° 0 mm 2 mps 749 mmHg 72%
    10:00 +19°C° 0 mm 3 mps 749 mmHg 67%
    11:00 +20°C° 0 mm 3 mps 749 mmHg 61%
    12:00 +20°C° 0.3 mm 3 mps 749 mmHg 61%
    13:00 +21°C° 0.3 mm 2 mps 748 mmHg 60%
    14:00 +21°C° 0.3 mm 2 mps 748 mmHg 59%
    15:00 +20°C° 1.4 mm 2 mps 748 mmHg 68%
    16:00 +20°C° 1.4 mm 1 mps 748 mmHg 76%
    17:00 +18°C° 1.4 mm 1 mps 747 mmHg 84%
    18:00 +16°C° 0.4 mm 1 mps 747 mmHg 87%
    19:00 +15°C° 0.4 mm 1 mps 747 mmHg 89%
    20:00 +15°C° 0.4 mm 1 mps 747 mmHg 91%
    21:00 +14°C° 0.1 mm 1 mps 748 mmHg 93%
    22:00 +13°C° 0.1 mm 1 mps 748 mmHg 94%
    23:00 +13°C° 0.1 mm 1 mps 748 mmHg 95%

    24 May, Thursday

    Time Temperature Precipitation Wind Pressure Humidity
    00:00 +12°C° 0 mm 1 mps 748 mmHg 95%
    01:00 +12°C° 0 mm 2 mps 748 mmHg 96%
    02:00 +10°C° 0 mm 2 mps 748 mmHg 96%
    03:00 +10°C° 0 mm 2 mps 749 mmHg 95%
    04:00 +12°C° 0 mm 2 mps 749 mmHg 95%
    05:00 +12°C° 0 mm 2 mps 749 mmHg 94%
    06:00 +13°C° 0 mm 2 mps 749 mmHg 89%
    07:00 +15°C° 0 mm 2 mps 750 mmHg 84%
    08:00 +16°C° 0 mm 3 mps 750 mmHg 79%
    09:00 +17°C° 0.1 mm 3 mps 750 mmHg 77%
    10:00 +17°C° 0.1 mm 4 mps 751 mmHg 75%
    11:00 +17°C° 0.1 mm 4 mps 751 mmHg 73%
    12:00 +17°C° 0.1 mm 4 mps 751 mmHg 71%
    13:00 +17°C° 0.1 mm 4 mps 751 mmHg 68%
    14:00 +15°C° 0.1 mm 4 mps 751 mmHg 66%
    15:00 +17°C° 0 mm 4 mps 752 mmHg 61%
    16:00 +17°C° 0 mm 4 mps 752 mmHg 55%
    17:00 +18°C° 0 mm 4 mps 752 mmHg 50%
    18:00 +16°C° 0 mm 3 mps 753 mmHg 53%
    19:00 +13°C° 0 mm 3 mps 753 mmHg 56%
    20:00 +11°C° 0 mm 3 mps 754 mmHg 60%
    21:00 +10°C° 0 mm 3 mps 754 mmHg 59%
    22:00 +9°C° 0 mm 3 mps 754 mmHg 58%
    23:00 +8°C° 0 mm 3 mps 755 mmHg 57%

    25 May, Friday

    Time Temperature Precipitation Wind Pressure Humidity
    00:00 +7°C° 0 mm 3 mps 755 mmHg 59%
    01:00 +5°C° 0 mm 3 mps 756 mmHg 61%
    02:00 +5°C° 0 mm 2 mps 756 mmHg 63%
    03:00 +6°C° 0 mm 2 mps 756 mmHg 62%
    04:00 +6°C° 0 mm 2 mps 757 mmHg 62%
    05:00 +6°C° 0 mm 2 mps 757 mmHg 61%
    06:00 +8°C° 0 mm 3 mps 757 mmHg 55%
    07:00 +9°C° 0 mm 3 mps 757 mmHg 48%
    08:00 +11°C° 0 mm 3 mps 758 mmHg 42%
    09:00 +12°C° 0 mm 4 mps 758 mmHg 39%
    10:00 +13°C° 0 mm 4 mps 758 mmHg 37%
    11:00 +14°C° 0 mm 4 mps 758 mmHg 35%
    12:00 +15°C° 0 mm 4 mps 757 mmHg 34%
    13:00 +15°C° 0 mm 4 mps 757 mmHg 34%
    14:00 +17°C° 0 mm 4 mps 757 mmHg 33%
    15:00 +17°C° 0 mm 3 mps 757 mmHg 35%
    16:00 +17°C° 0 mm 3 mps 757 mmHg 36%
    17:00 +17°C° 0 mm 3 mps 757 mmHg 38%
    18:00 +15°C° 0 mm 2 mps 757 mmHg 46%
    19:00 +13°C° 0 mm 1 mps 757 mmHg 55%
    20:00 +11°C° 0 mm 1 mps 757 mmHg 63%
    21:00 +10°C° 0 mm 1 mps 757 mmHg 64%
    22:00 +10°C° 0 mm 1 mps 757 mmHg 66%
    23:00 +9°C° 0 mm 1 mps 757 mmHg 67%

    26 May, Saturday

    Time Temperature Precipitation Wind Pressure Humidity
    00:00 +9°C° 0 mm 1 mps 758 mmHg 68%
    01:00 +8°C° 0 mm 1 mps 758 mmHg 69%
    02:00 +8°C° 0 mm 1 mps 758 mmHg 71%
    03:00 +9°C° 0 mm 1 mps 758 mmHg 69%
    04:00 +8°C° 0 mm 2 mps 758 mmHg 68%
    05:00 +9°C° 0 mm 2 mps 758 mmHg 67%
    06:00 +12°C° 0 mm 2 mps 758 mmHg 61%
    07:00 +14°C° 0 mm 3 mps 758 mmHg 54%
    08:00 +17°C° 0 mm 3 mps 758 mmHg 48%
    09:00 +18°C° 0 mm 3 mps 758 mmHg 45%
    10:00 +20°C° 0 mm 4 mps 758 mmHg 41%
    11:00 +21°C° 0 mm 4 mps 757 mmHg 37%
    12:00 +22°C° 0 mm 4 mps 757 mmHg 37%
    13:00 +23°C° 0 mm 4 mps 757 mmHg 37%
    14:00 +23°C° 0 mm 5 mps 756 mmHg 37%
    15:00 +23°C° 0 mm 4 mps 756 mmHg 40%
    16:00 +23°C° 0 mm 4 mps 756 mmHg 43%
    17:00 +22°C° 0 mm 4 mps 756 mmHg 45%
    18:00 +20°C° 0 mm 3 mps 756 mmHg 53%
    19:00 +18°C° 0 mm 3 mps 756 mmHg 60%
    20:00 +16°C° 0 mm 2 mps 756 mmHg 68%
    21:00 +15°C° 0 mm 2 mps 756 mmHg 70%
    22:00 +14°C° 0 mm 2 mps 756 mmHg 72%
    23:00 +13°C° 0 mm 2 mps 756 mmHg 74%
    Show more